TimeCST,TemperatureF,Dew PointF,Humidity,Sea Level PressureIn,VisibilityMPH,Wind Direction,Wind SpeedMPH,Gust SpeedMPH,PrecipitationIn,Events,Conditions,WindDirDegrees,DateUTC
12:53 AM,12.0,5.0,73,30.26,10.0,NNW,4.6,-,N/A,,Clear,340,2014-01-22 06:53:00
1:53 AM,10.9,5.0,77,30.25,10.0,Calm,Calm,-,N/A,,Clear,0,2014-01-22 07:53:00
2:53 AM,10.0,5.0,80,30.25,10.0,North,3.5,-,N/A,,Clear,360,2014-01-22 08:53:00
3:53 AM,9.0,5.0,84,30.24,10.0,Calm,Calm,-,N/A,,Clear,0,2014-01-22 09:53:00
4:53 AM,7.0,3.0,84,30.23,10.0,Calm,Calm,-,N/A,,Clear,0,2014-01-22 10:53:00
5:53 AM,7.0,3.9,87,30.23,10.0,SE,3.5,-,N/A,,Clear,140,2014-01-22 11:53:00
6:53 AM,9.0,1.0,70,30.23,10.0,South,4.6,-,N/A,,Scattered Clouds,190,2014-01-22 12:53:00
7:53 AM,10.9,1.9,67,30.22,10.0,South,5.8,-,N/A,,Overcast,170,2014-01-22 13:53:00
8:53 AM,12.0,-0.0,59,30.24,10.0,SSE,8.1,-,N/A,,Overcast,160,2014-01-22 14:53:00
9:53 AM,14.0,1.9,59,30.24,10.0,South,9.2,-,N/A,,Overcast,190,2014-01-22 15:53:00
10:53 AM,15.1,3.0,59,30.21,10.0,South,8.1,-,N/A,,Overcast,180,2014-01-22 16:53:00
11:53 AM,17.1,3.9,56,30.18,10.0,SSW,10.4,-,N/A,,Overcast,200,2014-01-22 17:53:00
12:53 PM,19.0,6.1,57,30.14,10.0,SW,10.4,-,N/A,,Overcast,230,2014-01-22 18:53:00
1:53 PM,19.9,9.0,62,30.11,10.0,SSW,9.2,-,N/A,,Overcast,210,2014-01-22 19:53:00
2:53 PM,21.0,10.0,63,30.12,10.0,SSW,8.1,-,N/A,,Overcast,200,2014-01-22 20:53:00
3:53 PM,21.9,9.0,58,30.14,10.0,SW,8.1,-,N/A,,Overcast,230,2014-01-22 21:53:00
4:53 PM,21.9,10.0,60,30.15,10.0,WSW,5.8,-,N/A,,Overcast,250,2014-01-22 22:53:00
5:53 PM,23.0,10.0,58,30.17,10.0,SW,5.8,-,N/A,,Overcast,220,2014-01-22 23:53:00
6:53 PM,21.9,10.9,63,30.17,10.0,South,8.1,-,N/A,,Mostly Cloudy,190,2014-01-23 00:53:00
7:53 PM,19.9,10.9,68,30.18,10.0,South,3.5,-,N/A,,Clear,180,2014-01-23 01:53:00
8:53 PM,17.1,10.0,74,30.20,10.0,Calm,Calm,-,N/A,,Scattered Clouds,0,2014-01-23 02:53:00
9:53 PM,19.0,10.0,68,30.21,10.0,West,4.6,-,N/A,,Clear,260,2014-01-23 03:53:00
10:53 PM,19.0,10.0,68,30.22,10.0,SW,9.2,-,N/A,,Scattered Clouds,230,2014-01-23 04:53:00
11:53 PM,18.0,10.0,71,30.22,10.0,WSW,4.6,-,N/A,,Clear,240,2014-01-23 05:53:00